| time (UTC) | temp F | wind direction | speed MPH | gust MPH | rain 1hr in | rain 24hr in | rain mn in | humidity % | barometer mb |
| 20260504081910 | 55 | 233 | 2.0 | 3.0 | 0.00 | 0.00 | 0.00 | 66 | 1013.9 |
| 20260504081406 | 55 | 253 | 2.0 | 2.0 | 0.00 | 0.00 | 0.00 | 65 | 1014.0 |
| 20260504080902 | 56 | 213 | 1.0 | 2.0 | 0.00 | 0.00 | 0.00 | 66 | 1014.1 |
| 20260504080400 | 55 | 234 | 2.0 | 2.0 | 0.00 | 0.00 | 0.00 | 65 | 1014.0 |
| 20260504070327 | 55 | 215 | 2.0 | 3.0 | 0.00 | 0.00 | 0.00 | 65 | 1014.4 |
| 20260504060247 | 57 | 258 | 3.0 | 4.0 | 0.00 | 0.00 | 0.00 | 63 | 1014.8 |
| 20260504050710 | 57 | 234 | 4.0 | 4.0 | 0.00 | 0.00 | 0.00 | 62 | 1014.7 |
| 20260504050206 | 56 | 201 | 2.0 | 2.0 | 0.00 | 0.00 | 0.00 | 64 | 1014.9 |
| 20260504045703 | 56 | 225 | 3.0 | 4.0 | 0.00 | 0.00 | 0.00 | 63 | 1014.9 |
| 20260504045158 | 56 | 226 | 1.0 | 2.0 | 0.00 | 0.00 | 0.00 | 62 | 1015.0 |
| 20260504044656 | 56 | 215 | 3.0 | 3.0 | 0.00 | 0.00 | 0.00 | 63 | 1014.9 |
| 20260504044153 | 56 | 241 | 2.0 | 3.0 | 0.00 | 0.00 | 0.00 | 62 | 1015.1 |
| 20260504043650 | 56 | 235 | 3.0 | 3.0 | 0.00 | 0.00 | 0.00 | 62 | 1015.0 |
| 20260504043147 | 56 | 214 | 2.0 | 2.0 | 0.00 | 0.00 | 0.00 | 62 | 1015.3 |
| 20260504042644 | 56 | 232 | 1.0 | 2.0 | 0.00 | 0.00 | 0.00 | 61 | 1015.2 |
| 20260504042141 | 56 | 218 | 2.0 | 2.0 | 0.00 | 0.00 | 0.00 | 62 | 1015.3 |
| 20260504041636 | 56 | 225 | 2.0 | 3.0 | 0.00 | 0.00 | 0.00 | 61 | 1015.3 |
| 20260504041133 | 57 | 211 | 2.0 | 2.0 | 0.00 | 0.00 | 0.00 | 61 | 1015.2 |
| 20260504040630 | 56 | 227 | 1.0 | 1.0 | 0.00 | 0.00 | 0.00 | 64 | 1015.3 |
| 20260504040127 | 56 | 208 | 2.0 | 2.0 | 0.00 | 0.00 | 0.00 | 64 | 1015.4 |
| 20260504035624 | 57 | 207 | 1.0 | 2.0 | 0.00 | 0.00 | 0.00 | 61 | 1015.4 |
| 20260504035120 | 57 | 221 | 1.0 | 1.0 | 0.00 | 0.00 | 0.00 | 62 | 1015.6 |
| 20260504034618 | 57 | 258 | 2.0 | 2.0 | 0.00 | 0.00 | 0.00 | 59 | 1015.6 |
| 20260504034114 | 57 | 216 | 1.0 | 2.0 | 0.00 | 0.00 | 0.00 | 60 | 1015.8 |
| 20260504033613 | 57 | 211 | 1.0 | 2.0 | 0.00 | 0.00 | 0.00 | 60 | 1015.8 |
| 20260504033110 | 57 | 194 | 1.0 | 1.0 | 0.00 | 0.00 | 0.00 | 59 | 1015.8 |
| 20260504032606 | 57 | 205 | 1.0 | 1.0 | 0.00 | 0.00 | 0.00 | 59 | 1016.0 |
| 20260504032104 | 57 | 203 | 2.0 | 2.0 | 0.00 | 0.00 | 0.00 | 58 | 1015.6 |
| 20260504031601 | 57 | 239 | 2.0 | 3.0 | 0.00 | 0.00 | 0.00 | 59 | 1015.6 |
| 20260504031056 | 57 | 233 | 2.0 | 2.0 | 0.00 | 0.00 | 0.00 | 59 | 1015.9 |
| 20260504030554 | 57 | 210 | 2.0 | 2.0 | 0.00 | 0.00 | 0.00 | 58 | 1015.7 |
| 20260504030050 | 58 | 209 | 1.0 | 1.0 | 0.00 | 0.00 | 0.00 | 56 | 1015.8 |
| 20260504025548 | 58 | 242 | 2.0 | 2.0 | 0.00 | 0.00 | 0.00 | 53 | 1015.8 |
| 20260504025044 | 58 | 179 | 0.0 | 0.0 | 0.00 | 0.00 | 0.00 | 57 | 1015.7 |
| 20260504024541 | 58 | 218 | 1.0 | 1.0 | 0.00 | 0.00 | 0.00 | 57 | 1015.7 |
| 20260504024038 | 58 | 217 | 1.0 | 2.0 | 0.00 | 0.00 | 0.00 | 54 | 1015.8 |
| 20260504023535 | 58 | 226 | 2.0 | 2.0 | 0.00 | 0.00 | 0.00 | 57 | 1015.3 |
| 20260504023030 | 57 | 196 | 2.0 | 2.0 | 0.00 | 0.00 | 0.00 | 57 | 1015.7 |
| 20260504022526 | 57 | 208 | 1.0 | 1.0 | 0.00 | 0.00 | 0.00 | 57 | 1015.3 |
| 20260504022023 | 56 | 204 | 1.0 | 1.0 | 0.00 | 0.00 | 0.00 | 65 | 1015.3 |
| 20260504021521 | 57 | 217 | 1.0 | 1.0 | 0.00 | 0.00 | 0.00 | 62 | 1015.4 |
| 20260504021017 | 57 | 215 | 1.0 | 1.0 | 0.00 | 0.00 | 0.00 | 61 | 1015.7 |
| 20260504020514 | 57 | 165 | 0.0 | 1.0 | 0.00 | 0.00 | 0.00 | 60 | 1015.3 |
| 20260504020011 | 57 | 169 | 1.0 | 1.0 | 0.00 | 0.00 | 0.00 | 61 | 1015.6 |
| 20260504015507 | 57 | 214 | 1.0 | 1.0 | 0.00 | 0.00 | 0.00 | 63 | 1015.0 |
| 20260504015003 | 57 | 227 | 1.0 | 1.0 | 0.00 | 0.00 | 0.00 | 60 | 1015.2 |
| 20260504014459 | 58 | 210 | 1.0 | 1.0 | 0.00 | 0.00 | 0.00 | 57 | 1015.1 |
| 20260504013956 | 58 | 205 | 1.0 | 2.0 | 0.00 | 0.00 | 0.00 | 59 | 1015.1 |
| 20260504013455 | 57 | 214 | 1.0 | 1.0 | 0.00 | 0.00 | 0.00 | 60 | 1015.0 |
| 20260504012950 | 57 | 220 | 1.0 | 2.0 | 0.00 | 0.00 | 0.00 | 60 | 1015.1 |
| 20260504012449 | 57 | 224 | 2.0 | 2.0 | 0.00 | 0.00 | 0.00 | 60 | 1015.0 |
| 20260504011946 | 56 | 203 | 1.0 | 1.0 | 0.00 | 0.00 | 0.00 | 64 | 1015.2 |
| 20260504011442 | 57 | 184 | 0.0 | 0.0 | 0.00 | 0.00 | 0.00 | 64 | 1015.3 |
| 20260504010938 | 57 | 205 | 1.0 | 1.0 | 0.00 | 0.00 | 0.00 | 64 | 1015.0 |
| 20260504010434 | 57 | 194 | 1.0 | 1.0 | 0.00 | 0.00 | 0.00 | 64 | 1015.4 |
| 20260504005931 | 57 | 172 | 0.0 | 0.0 | 0.00 | 0.00 | 0.00 | 64 | 1015.2 |
| 20260504005427 | 57 | 184 | 0.0 | 0.0 | 0.00 | 0.00 | 0.00 | 62 | 1015.4 |
| 20260504004925 | 58 | 206 | 0.0 | 0.0 | 0.00 | 0.00 | 0.00 | 59 | 1015.4 |
| 20260504004423 | 58 | 207 | 0.0 | 0.0 | 0.00 | 0.00 | 0.00 | 62 | 1015.6 |
| 20260504003920 | 59 | 207 | 0.0 | 0.0 | 0.00 | 0.00 | 0.00 | 57 | 1015.6 |
| 20260504003416 | 59 | 191 | 0.0 | 0.0 | 0.00 | 0.00 | 0.00 | 59 | 1015.6 |
| 20260504002913 | 60 | 192 | 0.0 | 0.0 | 0.00 | 0.00 | 0.00 | 58 | 1015.3 |
| 20260504002410 | 61 | 192 | 0.0 | 1.0 | 0.00 | 0.00 | 0.00 | 55 | 1015.4 |
| 20260504001907 | 61 | 196 | 0.0 | 1.0 | 0.00 | 0.00 | 0.00 | 53 | 1015.6 |
| 20260504001405 | 61 | 197 | 1.0 | 1.0 | 0.00 | 0.00 | 0.00 | 54 | 1015.4 |
| 20260504000901 | 62 | 196 | 1.0 | 1.0 | 0.00 | 0.00 | 0.00 | 49 | 1015.3 |
| 20260504000358 | 62 | 185 | 0.0 | 1.0 | 0.00 | 0.00 | 0.00 | 50 | 1015.4 |
| 20260503235855 | 62 | 147 | 0.0 | 1.0 | 0.00 | 0.00 | 0.00 | 48 | 1015.7 |
| 20260503235353 | 63 | 198 | 0.0 | 1.0 | 0.00 | 0.00 | 0.00 | 50 | 1015.4 |
| 20260503234850 | 63 | 207 | 0.0 | 1.0 | 0.00 | 0.00 | 0.00 | 48 | 1015.8 |
| 20260503234348 | 63 | 205 | 1.0 | 1.0 | 0.00 | 0.00 | 0.00 | 49 | 1015.9 |
| 20260503233845 | 64 | 188 | 1.0 | 1.0 | 0.00 | 0.00 | 0.00 | 45 | 1015.7 |
| 20260503233342 | 64 | 205 | 1.0 | 2.0 | 0.00 | 0.00 | 0.00 | 45 | 1015.9 |
| 20260503232838 | 64 | 226 | 4.0 | 6.0 | 0.00 | 0.00 | 0.00 | 43 | 1016.0 |
| 20260503232335 | 64 | 239 | 0.0 | 1.0 | 0.00 | 0.00 | 0.00 | 46 | 1016.2 |
| 20260503231834 | 64 | 207 | 0.0 | 0.0 | 0.00 | 0.00 | 0.00 | 46 | 1016.0 |
| 20260503231330 | 64 | 190 | 0.0 | 0.0 | 0.00 | 0.00 | 0.00 | 45 | 1015.9 |
| 20260503230826 | 64 | 189 | 0.0 | 1.0 | 0.00 | 0.00 | 0.00 | 49 | 1016.1 |
| 20260503230323 | 64 | 13 | 0.0 | 0.0 | 0.00 | 0.00 | 0.00 | 43 | 1016.0 |
| 20260503225821 | 65 | 16 | 0.0 | 1.0 | 0.00 | 0.00 | 0.00 | 44 | 1015.9 |
| 20260503225316 | 65 | 185 | 1.0 | 1.0 | 0.00 | 0.00 | 0.00 | 42 | 1016.0 |
| 20260503224813 | 65 | 196 | 2.0 | 2.0 | 0.00 | 0.00 | 0.00 | 42 | 1016.2 |
| 20260503224310 | 65 | 247 | 1.0 | 2.0 | 0.00 | 0.00 | 0.00 | 41 | 1016.1 |
| 20260503223808 | 65 | 176 | 1.0 | 1.0 | 0.00 | 0.00 | 0.00 | 41 | 1015.9 |
| 20260503223305 | 65 | 152 | 2.0 | 2.0 | 0.00 | 0.00 | 0.00 | 40 | 1016.1 |
| 20260503222801 | 65 | 247 | 4.0 | 6.0 | 0.00 | 0.00 | 0.00 | 40 | 1016.3 |
| 20260503222300 | 66 | 297 | 0.0 | 0.0 | 0.00 | 0.00 | 0.00 | 40 | 1016.5 |
| 20260503221757 | 66 | 227 | 1.0 | 2.0 | 0.00 | 0.00 | 0.00 | 41 | 1016.2 |
| 20260503221255 | 66 | 244 | 4.0 | 4.0 | 0.00 | 0.00 | 0.00 | 40 | 1016.4 |
| 20260503220751 | 66 | 253 | 1.0 | 2.0 | 0.00 | 0.00 | 0.00 | 39 | 1016.6 |
| 20260503220248 | 66 | 247 | 3.0 | 3.0 | 0.00 | 0.00 | 0.00 | 40 | 1016.7 |
| 20260503215745 | 66 | 246 | 1.0 | 2.0 | 0.00 | 0.00 | 0.00 | 40 | 1016.7 |
| 20260503215242 | 66 | 212 | 0.0 | 1.0 | 0.00 | 0.00 | 0.00 | 41 | 1016.6 |
| 20260503214740 | 66 | 241 | 3.0 | 4.0 | 0.00 | 0.00 | 0.00 | 42 | 1016.7 |
| 20260503214237 | 66 | 280 | 0.0 | 0.0 | 0.00 | 0.00 | 0.00 | 43 | 1017.1 |
| 20260503213735 | 67 | 272 | 1.0 | 2.0 | 0.00 | 0.00 | 0.00 | 41 | 1017.0 |
| 20260503213232 | 67 | 216 | 1.0 | 2.0 | 0.00 | 0.00 | 0.00 | 42 | 1017.0 |
| 20260503212729 | 66 | 214 | 4.0 | 4.0 | 0.00 | 0.00 | 0.00 | 40 | 1017.0 |
| 20260503212226 | 66 | 164 | 2.0 | 3.0 | 0.00 | 0.00 | 0.00 | 40 | 1017.0 |
| 20260503211724 | 66 | 225 | 1.0 | 1.0 | 0.00 | 0.00 | 0.00 | 41 | 1017.3 |
| 20260503211220 | 67 | 217 | 0.0 | 1.0 | 0.00 | 0.00 | 0.00 | 41 | 1017.3 |
| 20260503210715 | 67 | 308 | 0.0 | 1.0 | 0.00 | 0.00 | 0.00 | 40 | 1017.4 |
| 20260503210213 | 67 | 248 | 1.0 | 1.0 | 0.00 | 0.00 | 0.00 | 39 | 1017.5 |
| 20260503205708 | 67 | 237 | 3.0 | 3.0 | 0.00 | 0.00 | 0.00 | 39 | 1017.6 |
| 20260503205205 | 67 | 246 | 1.0 | 2.0 | 0.00 | 0.00 | 0.00 | 40 | 1017.5 |
| 20260503204701 | 67 | 233 | 3.0 | 4.0 | 0.00 | 0.00 | 0.00 | 39 | 1017.7 |
| 20260503204159 | 68 | 234 | 2.0 | 2.0 | 0.00 | 0.00 | 0.00 | 39 | 1017.5 |
| 20260503203656 | 68 | 212 | 0.0 | 1.0 | 0.00 | 0.00 | 0.00 | 42 | 1017.8 |
| 20260503203154 | 69 | 208 | 1.0 | 2.0 | 0.00 | 0.00 | 0.00 | 38 | 1017.8 |
| 20260503202650 | 70 | 239 | 3.0 | 3.0 | 0.00 | 0.00 | 0.00 | 36 | 1017.8 |
| 20260503202148 | 71 | 304 | 0.0 | 0.0 | 0.00 | 0.00 | 0.00 | 36 | 1018.1 |
| 20260503201646 | 69 | 305 | 0.0 | 1.0 | 0.00 | 0.00 | 0.00 | 40 | 1018.1 |
| 20260503201143 | 69 | 261 | 1.0 | 2.0 | 0.00 | 0.00 | 0.00 | 36 | 1018.2 |
| 20260503200639 | 71 | 269 | 0.0 | 1.0 | 0.00 | 0.00 | 0.00 | 36 | 1018.5 |
| 20260503200136 | 71 | 240 | 1.0 | 1.0 | 0.00 | 0.00 | 0.00 | 37 | 1018.6 |
| 20260503195633 | 70 | 238 | 3.0 | 4.0 | 0.00 | 0.00 | 0.00 | 35 | 1018.6 |
| 20260503195130 | 70 | 305 | 1.0 | 1.0 | 0.00 | 0.00 | 0.00 | 35 | 1018.6 |
| 20260503194627 | 71 | 241 | 3.0 | 3.0 | 0.00 | 0.00 | 0.00 | 34 | 1018.6 |
| 20260503194122 | 71 | 182 | 2.0 | 2.0 | 0.00 | 0.00 | 0.00 | 35 | 1018.8 |
| 20260503193620 | 70 | 344 | 0.0 | 1.0 | 0.00 | 0.00 | 0.00 | 36 | 1019.0 |
| 20260503193114 | 70 | 202 | 2.0 | 3.0 | 0.00 | 0.00 | 0.00 | 38 | 1018.8 |
| 20260503192611 | 69 | 202 | 2.0 | 2.0 | 0.00 | 0.00 | 0.00 | 35 | 1019.0 |
| 20260503192106 | 70 | 150 | 2.0 | 2.0 | 0.00 | 0.00 | 0.00 | 36 | 1019.2 |
| 20260503191603 | 69 | 233 | 1.0 | 1.0 | 0.00 | 0.00 | 0.00 | 41 | 1019.3 |
| 20260503191059 | 67 | 223 | 1.0 | 2.0 | 0.00 | 0.00 | 0.00 | 41 | 1019.2 |
| 20260503190556 | 67 | 211 | 0.0 | 1.0 | 0.00 | 0.00 | 0.00 | 39 | 1019.1 |
| 20260503190053 | 69 | 244 | 3.0 | 3.0 | 0.00 | 0.00 | 0.00 | 39 | 1019.4 |
| 20260503185545 | 69 | 190 | 1.0 | 1.0 | 0.00 | 0.00 | 0.00 | 40 | 1019.3 |
| 20260503185045 | 70 | 125 | 2.0 | 3.0 | 0.00 | 0.00 | 0.00 | 35 | 1019.4 |
| 20260503184541 | 69 | 339 | 0.0 | 0.0 | 0.00 | 0.00 | 0.00 | 39 | 1019.5 |
| 20260503184038 | 67 | 333 | 0.0 | 0.0 | 0.00 | 0.00 | 0.00 | 42 | 1019.7 |
| 20260503183534 | 68 | 249 | 2.0 | 3.0 | 0.00 | 0.00 | 0.00 | 39 | 1019.7 |
| 20260503183031 | 66 | 307 | 1.0 | 1.0 | 0.00 | 0.00 | 0.00 | 44 | 1019.7 |
| 20260503182530 | 68 | 211 | 1.0 | 2.0 | 0.00 | 0.00 | 0.00 | 40 | 1020.0 |
| 20260503182027 | 68 | 200 | 2.0 | 2.0 | 0.00 | 0.00 | 0.00 | 41 | 1019.7 |
| 20260503181524 | 67 | 14 | 1.0 | 1.0 | 0.00 | 0.00 | 0.00 | 42 | 1019.7 |
| 20260503181020 | 66 | 187 | 1.0 | 1.0 | 0.00 | 0.00 | 0.00 | 40 | 1020.1 |
| 20260503180518 | 66 | 246 | 3.0 | 4.0 | 0.00 | 0.00 | 0.00 | 41 | 1020.1 |
| 20260503180015 | 66 | 75 | 2.0 | 2.0 | 0.00 | 0.00 | 0.00 | 40 | 1020.0 |
| 20260503175513 | 66 | 190 | 2.0 | 2.0 | 0.00 | 0.00 | 0.00 | 40 | 1020.1 |
| 20260503175009 | 66 | 211 | 0.0 | 0.0 | 0.00 | 0.00 | 0.00 | 41 | 1020.3 |
| 20260503174507 | 65 | 306 | 1.0 | 1.0 | 0.00 | 0.00 | 0.00 | 38 | 1020.3 |
| 20260503174003 | 65 | 267 | 4.0 | 4.0 | 0.00 | 0.00 | 0.00 | 39 | 1020.3 |
| 20260503173457 | 66 | 262 | 1.0 | 1.0 | 0.00 | 0.00 | 0.00 | 41 | 1020.2 |
| 20260503172954 | 66 | 327 | 0.0 | 1.0 | 0.00 | 0.00 | 0.00 | 36 | 1020.2 |
| 20260503172452 | 64 | 239 | 1.0 | 2.0 | 0.00 | 0.00 | 0.00 | 40 | 1020.5 |
| 20260503171949 | 64 | 246 | 1.0 | 2.0 | 0.00 | 0.00 | 0.00 | 48 | 1020.5 |
| 20260503171445 | 64 | 263 | 1.0 | 2.0 | 0.00 | 0.00 | 0.00 | 41 | 1020.5 |
| 20260503170943 | 63 | 344 | 0.0 | 0.0 | 0.00 | 0.00 | 0.00 | 43 | 1020.7 |
| 20260503170439 | 62 | 44 | 1.0 | 1.0 | 0.00 | 0.00 | 0.00 | 45 | 1020.5 |
| 20260503150831 | 57 | 43 | 1.0 | 2.0 | 0.00 | 0.00 | 0.00 | 47 | 1021.7 |
| 20260503150327 | 56 | 247 | 2.0 | 3.0 | 0.00 | 0.00 | 0.00 | 51 | 1021.6 |
| 20260503140252 | 53 | 255 | 3.0 | 3.0 | 0.00 | 0.00 | 0.00 | 64 | 1021.6 |
| 20260503131221 | 49 | 172 | 0.0 | 0.0 | 0.00 | 0.00 | 0.00 | 89 | 1021.5 |
| 20260503130719 | 49 | 87 | 0.0 | 0.0 | 0.00 | 0.00 | 0.00 | 92 | 1021.6 |
| 20260503130216 | 48 | 218 | 0.0 | 0.0 | 0.00 | 0.00 | 0.00 | 94 | 1021.6 |
| 20260503120142 | 40 | 214 | 0.0 | 0.0 | 0.00 | 0.00 | 0.00 | 99 | 1021.5 |
| 20260503110609 | 0 | 0.0 | 0.0 | 0.00 | 0.00 | 0.00 | 1020.5 | ||
| 20260503110107 | 37 | 214 | 0.0 | 0.0 | 0.00 | 0.00 | 0.00 | 99 | 1020.5 |